User: anonymous   Login
Location: Unspecified
(0.0000°N, 0.0000°E)
Time: 23:53:12
(UTC+00:00)
Language:

KANOPUS-V 3 - Orbit

View from above orbital plane
View from above orbital plane
View from above satellite
View from above satellite

Ground track
Ground track

The orbit data is extracted from the following two-line orbital elements,

1 43180U 18014A   19046.79916947  .00000297  00000-0  17417-4 0  9994
2 43180  97.4489 316.6539 0001815  90.3217 342.1509 15.18956601 57636
Epoch (UTC): 15 February 2019 19:10:48
Eccentricity: 0.0001815
inclination: 97.4489°
perigee height: 508 km
apogee height: 510 km
right ascension of ascending node: 316.6539°
argument of perigee: 90.3217°
revolutions per day: 15.18956601
mean anomaly at epoch: 342.1509°
orbit number at epoch: 5763

The dashed part of the orbit path shows where the satellite is in the earth's shadow,  

DLR